Home   Weather   Tau   Past weeks
Flag for Norway

Past Weather in Tau, Norway — Yesterday and Last 2 Weeks

Now
55 °F

Scattered showers. Broken clouds.


Feels Like: 49 °F
Forecast: 48 / 44 °F
Wind: 31 mph from West

Location: Stavanger / Sola

Current Time: Sep 15, 2019 at 9:58:58 am

Latest Report: Sep 15, 2019 at 9:20 am


Visibility: N/A

Pressure: 29.74 "Hg

Humidity: 63%

Dew Point: 43 °F

Location of TauLocation

Past Weather in Tau — Graph

°F

Tau Temperature Yesterday

Maximum temperature yesterday: 59 °F (at 11:20 am)
Minimum temperature yesterday: 52 °F (at 5:50 pm)
Average temperature yesterday: 56 °F

High & Low Weather Summary for the Past Weeks

 TemperatureHumidityPressure
High68 °F (Aug 31, 11:50 am)100% (Sep 3, 3:50 am)30.39 "Hg (Sep 3, 3:50 am)
Low46 °F (Sep 7, 5:50 am)54% (Sep 5, 9:50 pm)29.56 "Hg (Sep 4, 2:50 pm)
Average56 °F79%29.91 "Hg
* Reported Aug 31 8:20 am — Sep 15 8:20 am, Tau. Weather by CustomWeather, © 2019

Note: Actual official high and low records may vary slightly from our data, if they occured in-between our weather recording intervals... More about our weather records

Advertising

Tau Weather History for the Previous 24 Hours

Scroll right to see more
 ConditionsComfort  
Time TempWeatherWind HumidityBarometerVisibility
8:20 am
Sun, Sep 15
55 °FScattered showers. Broken clouds.30 mph55%29.71 "HgN/A
7:50 am54 °FScattered showers. Broken clouds.31 mph63%29.74 "HgN/A
7:20 am54 °FSprinkles. Broken clouds.32 mph67%29.74 "HgN/A
6:50 am55 °FScattered showers. Partly cloudy.28 mph67%29.71 "HgN/A
6:20 am55 °FLight rain. Passing clouds.28 mph67%29.71 "HgN/A
5:50 am55 °FPartly cloudy.29 mph67%29.74 "HgN/A
4:50 am55 °FPartly cloudy.23 mph72%29.74 "HgN/A
3:50 am55 °FPassing clouds.21 mph77%29.74 "HgN/A
2:50 am54 °FLight rain. Partly cloudy.18 mph82%29.77 "Hg6 mi
1:50 am54 °FRain. Partly cloudy.25 mph88%29.77 "Hg4 mi
1:20 am57 °FRain. Partly cloudy.21 mph88%29.77 "Hg4 mi
12:50 am57 °FRain. Partly cloudy.20 mph94%29.77 "Hg4 mi
12:20 am57 °FRain. Passing clouds.22 mph94%29.80 "Hg4 mi
11:50 pm
Sat, Sep 14
57 °FRain. Passing clouds.25 mph88%29.80 "Hg4 mi
11:20 pm57 °FRain. Passing clouds.23 mph88%29.83 "Hg4 mi
10:50 pm55 °FRain. Passing clouds.25 mph94%29.83 "Hg4 mi
10:20 pm55 °FRain. Passing clouds.24 mph94%29.86 "Hg4 mi
9:50 pm57 °FRain. Passing clouds.23 mph88%29.86 "Hg5 mi
9:20 pm57 °FRain. Passing clouds.23 mph82%29.89 "Hg5 mi
8:50 pm57 °FPartly cloudy.23 mph82%29.89 "HgN/A
8:20 pm57 °FRain. Partly cloudy.20 mph82%29.95 "Hg5 mi
7:50 pm57 °FLight rain. Partly sunny.17 mph77%29.95 "Hg5 mi
7:20 pm55 °FRain. Broken clouds.17 mph88%29.98 "Hg3 mi
6:50 pm54 °FRain. Broken clouds.15 mph88%30.01 "Hg4 mi
6:20 pm54 °FLight rain. Broken clouds.20 mph82%30.01 "HgN/A
5:50 pm52 °FRain. Broken clouds.21 mph94%30.04 "Hg5 mi
5:20 pm54 °FRain. Broken clouds.15 mph88%30.09 "Hg4 mi
4:50 pm54 °FRain. Broken clouds.21 mph88%30.12 "Hg5 mi
4:20 pm55 °FLight rain. Broken clouds.17 mph82%30.12 "Hg4 mi
3:50 pm55 °FRain. Broken clouds.18 mph82%30.15 "Hg5 mi
3:20 pm55 °FLight rain. Broken clouds.15 mph88%30.15 "HgN/A
2:50 pm54 °FLight rain. Partly sunny.15 mph77%30.21 "HgN/A
2:20 pm55 °FLight rain. Broken clouds.18 mph82%30.24 "HgN/A
1:50 pm57 °FLight rain. Broken clouds.17 mph72%30.24 "HgN/A
1:20 pm57 °FLight rain. Broken clouds.15 mph77%30.24 "HgN/A
12:50 pm59 °FBroken clouds.18 mph72%30.27 "HgN/A
12:20 pm59 °FBroken clouds.16 mph72%30.27 "HgN/A
11:50 am59 °FBroken clouds.16 mph72%30.27 "HgN/A
11:20 am59 °FBroken clouds.15 mph72%30.30 "HgN/A
10:50 am57 °FScattered showers. Broken clouds.15 mph77%30.30 "HgN/A
10:20 am57 °FBroken clouds.16 mph77%30.30 "HgN/A
9:50 am57 °FBroken clouds.15 mph77%30.30 "HgN/A
9:20 am57 °FBroken clouds.16 mph77%30.30 "HgN/A
Weather by CustomWeather, © 2019

See weather overview